Year,Month,Day,Hour,Minute,Value (Times are PST for temperature in C)
2011,08,17,00,00,13.70
2011,08,17,00,01,13.70
2011,08,17,00,02,13.70
2011,08,17,00,03,13.70
2011,08,17,00,04,13.70
2011,08,17,00,05,13.70
2011,08,17,00,06,13.70
2011,08,17,00,07,13.70
2011,08,17,00,08,13.70
2011,08,17,00,09,13.70
2011,08,17,00,10,13.60
2011,08,17,00,11,13.60
2011,08,17,00,12,13.60
2011,08,17,00,13,13.60
2011,08,17,00,14,13.60
2011,08,17,00,15,13.60
2011,08,17,00,16,13.60
2011,08,17,00,17,13.60
2011,08,17,00,18,13.60
2011,08,17,00,19,13.60
2011,08,17,00,20,13.50
2011,08,17,00,21,13.50
2011,08,17,00,22,13.50
2011,08,17,00,23,13.50
2011,08,17,00,24,13.50
2011,08,17,00,25,13.50
2011,08,17,00,26,13.50
2011,08,17,00,27,13.50
2011,08,17,00,28,13.50
2011,08,17,00,29,13.50
2011,08,17,00,30,13.40
2011,08,17,00,31,13.40
2011,08,17,00,32,13.40
2011,08,17,00,33,13.40
2011,08,17,00,34,13.40
2011,08,17,00,35,13.40
2011,08,17,00,36,13.40
2011,08,17,00,37,13.30
2011,08,17,00,38,13.30
2011,08,17,00,39,13.30
2011,08,17,00,40,13.20
2011,08,17,00,41,13.20
2011,08,17,00,42,13.20
2011,08,17,00,43,13.10
2011,08,17,00,44,13.10
2011,08,17,00,45,13.10
2011,08,17,00,46,13.10
2011,08,17,00,47,13.10
2011,08,17,00,48,13.10
2011,08,17,00,49,13.10
2011,08,17,00,50,13.00
2011,08,17,00,51,13.00
2011,08,17,00,52,13.00
2011,08,17,00,53,13.00
2011,08,17,00,54,13.00
2011,08,17,00,55,13.00
2011,08,17,00,56,13.00
2011,08,17,00,57,13.00
2011,08,17,00,58,13.00
2011,08,17,00,59,13.00
2011,08,17,01,00,13.00
2011,08,17,01,01,12.90
2011,08,17,01,02,12.90
2011,08,17,01,03,12.90
2011,08,17,01,04,12.90
2011,08,17,01,05,12.90
2011,08,17,01,06,12.90
2011,08,17,01,07,12.90
2011,08,17,01,08,12.90
2011,08,17,01,09,12.90
2011,08,17,01,10,12.90
2011,08,17,01,11,12.80
2011,08,17,01,12,12.90
2011,08,17,01,13,12.90
2011,08,17,01,14,12.80
2011,08,17,01,15,12.80
2011,08,17,01,16,12.80
2011,08,17,01,17,12.80
2011,08,17,01,18,12.80
2011,08,17,01,19,12.80
2011,08,17,01,20,12.80
2011,08,17,01,21,12.80
2011,08,17,01,22,12.80
2011,08,17,01,23,12.70
2011,08,17,01,24,12.70
2011,08,17,01,25,12.70
2011,08,17,01,26,12.70
2011,08,17,01,27,12.60
2011,08,17,01,28,12.60
2011,08,17,01,29,12.60
2011,08,17,01,30,12.50
2011,08,17,01,31,12.50
2011,08,17,01,32,12.50
2011,08,17,01,33,12.50
2011,08,17,01,34,12.50
2011,08,17,01,35,12.50
2011,08,17,01,36,12.50
2011,08,17,01,37,12.50
2011,08,17,01,38,12.50
2011,08,17,01,39,12.50
2011,08,17,01,40,12.50
2011,08,17,01,41,12.50
2011,08,17,01,42,12.50
2011,08,17,01,43,12.40
2011,08,17,01,44,12.40
2011,08,17,01,45,12.40
2011,08,17,01,46,12.40
2011,08,17,01,47,12.40
2011,08,17,01,48,12.40
2011,08,17,01,49,12.40
2011,08,17,01,50,12.40
2011,08,17,01,51,12.40
2011,08,17,01,52,12.30
2011,08,17,01,53,12.30
2011,08,17,01,54,12.30
2011,08,17,01,55,12.30
2011,08,17,01,56,12.30
2011,08,17,01,57,12.30
2011,08,17,01,58,12.30
2011,08,17,01,59,12.30
2011,08,17,02,00,12.30
2011,08,17,02,01,12.30
2011,08,17,02,02,12.30
2011,08,17,02,03,12.20
2011,08,17,02,04,12.20
2011,08,17,02,05,12.20
2011,08,17,02,06,12.20
2011,08,17,02,07,12.20
2011,08,17,02,08,12.20
2011,08,17,02,09,12.20
2011,08,17,02,10,12.20
2011,08,17,02,11,12.20
2011,08,17,02,12,12.20
2011,08,17,02,13,12.20
2011,08,17,02,14,12.20
2011,08,17,02,15,12.20
2011,08,17,02,16,12.20
2011,08,17,02,17,12.20
2011,08,17,02,18,12.20
2011,08,17,02,19,12.20
2011,08,17,02,20,12.10
2011,08,17,02,21,12.10
2011,08,17,02,22,12.10
2011,08,17,02,23,12.10
2011,08,17,02,24,12.10
2011,08,17,02,25,12.00
2011,08,17,02,26,12.00
2011,08,17,02,27,12.00
2011,08,17,02,28,12.00
2011,08,17,02,29,11.90
2011,08,17,02,30,11.90
2011,08,17,02,31,11.90
2011,08,17,02,32,11.80
2011,08,17,02,33,11.80
2011,08,17,02,34,11.80
2011,08,17,02,35,11.80
2011,08,17,02,36,11.80
2011,08,17,02,37,11.70
2011,08,17,02,38,11.70
2011,08,17,02,39,11.70
2011,08,17,02,40,11.60
2011,08,17,02,41,11.60
2011,08,17,02,42,11.50
2011,08,17,02,43,11.50
2011,08,17,02,44,11.40
2011,08,17,02,45,11.40
2011,08,17,02,46,11.30
2011,08,17,02,47,11.30
2011,08,17,02,48,11.30
2011,08,17,02,49,11.30
2011,08,17,02,50,11.20
2011,08,17,02,51,11.20
2011,08,17,02,52,11.20
2011,08,17,02,53,11.20
2011,08,17,02,54,11.20
2011,08,17,02,55,11.10
2011,08,17,02,56,11.10
2011,08,17,02,57,11.10
2011,08,17,02,58,11.10
2011,08,17,02,59,11.00
2011,08,17,03,00,11.00
2011,08,17,03,01,11.00
2011,08,17,03,02,11.00
2011,08,17,03,03,10.90
2011,08,17,03,04,10.90
2011,08,17,03,05,10.90
2011,08,17,03,06,10.90
2011,08,17,03,07,10.80
2011,08,17,03,08,10.80
2011,08,17,03,09,10.80
2011,08,17,03,10,10.80
2011,08,17,03,11,10.70
2011,08,17,03,12,10.70
2011,08,17,03,13,10.70
2011,08,17,03,14,10.70
2011,08,17,03,15,10.70
2011,08,17,03,16,10.60
2011,08,17,03,17,10.60
2011,08,17,03,18,10.60
2011,08,17,03,19,10.60
2011,08,17,03,20,10.60
2011,08,17,03,21,10.60
2011,08,17,03,22,10.50
2011,08,17,03,23,10.50
2011,08,17,03,24,10.50
2011,08,17,03,25,10.40
2011,08,17,03,26,10.40
2011,08,17,03,27,10.40
2011,08,17,03,28,10.40
2011,08,17,03,29,10.40
2011,08,17,03,30,10.40
2011,08,17,03,31,10.30
2011,08,17,03,32,10.30
2011,08,17,03,33,10.30
2011,08,17,03,34,10.30
2011,08,17,03,35,10.30
2011,08,17,03,36,10.30
2011,08,17,03,37,10.30
2011,08,17,03,38,10.20
2011,08,17,03,39,10.20
2011,08,17,03,40,10.20
2011,08,17,03,41,10.20
2011,08,17,03,42,10.20
2011,08,17,03,43,10.20
2011,08,17,03,44,10.20
2011,08,17,03,45,10.20
2011,08,17,03,46,10.20
2011,08,17,03,47,10.20
2011,08,17,03,48,10.20
2011,08,17,03,49,10.20
2011,08,17,03,50,10.20
2011,08,17,03,51,10.10
2011,08,17,03,52,10.10
2011,08,17,03,53,10.10
2011,08,17,03,54,10.10
2011,08,17,03,55,10.10
2011,08,17,03,56,10.10
2011,08,17,03,57,10.10
2011,08,17,03,58,10.10
2011,08,17,03,59,10.10
2011,08,17,04,00,10.10
2011,08,17,04,01,10.10
2011,08,17,04,02,10.10
2011,08,17,04,03,10.10
2011,08,17,04,04,10.10
2011,08,17,04,05,10.10
2011,08,17,04,06,10.10
2011,08,17,04,07,10.10
2011,08,17,04,08,10.10
2011,08,17,04,09,10.10
2011,08,17,04,10,10.10
2011,08,17,04,11,10.00
2011,08,17,04,12,10.00
2011,08,17,04,13,10.00
2011,08,17,04,14,10.00
2011,08,17,04,15,10.00
2011,08,17,04,16,10.00
2011,08,17,04,17,10.00
2011,08,17,04,18,9.90
2011,08,17,04,19,9.90
2011,08,17,04,20,9.90
2011,08,17,04,21,9.90
2011,08,17,04,22,9.90
2011,08,17,04,23,9.90
2011,08,17,04,24,9.90
2011,08,17,04,25,9.90
2011,08,17,04,26,9.90
2011,08,17,04,27,9.90
2011,08,17,04,28,9.90
2011,08,17,04,29,9.90
2011,08,17,04,30,9.90
2011,08,17,04,31,9.90
2011,08,17,04,32,9.90
2011,08,17,04,33,9.90
2011,08,17,04,34,9.80
2011,08,17,04,35,9.80
2011,08,17,04,36,9.80
2011,08,17,04,37,9.80
2011,08,17,04,38,9.80
2011,08,17,04,39,9.80
2011,08,17,04,40,9.80
2011,08,17,04,41,9.80
2011,08,17,04,42,9.70
2011,08,17,04,43,9.70
2011,08,17,04,44,9.70
2011,08,17,04,45,9.70
2011,08,17,04,46,9.70
2011,08,17,04,47,9.70
2011,08,17,04,48,9.70
2011,08,17,04,49,9.70
2011,08,17,04,50,9.70
2011,08,17,04,51,9.70
2011,08,17,04,52,9.70
2011,08,17,04,53,9.70
2011,08,17,04,54,9.60
2011,08,17,04,55,9.60
2011,08,17,04,56,9.60
2011,08,17,04,57,9.60
2011,08,17,04,58,9.60
2011,08,17,04,59,9.60
2011,08,17,05,00,9.60
2011,08,17,05,01,9.60
2011,08,17,05,02,9.60
2011,08,17,05,03,9.60
2011,08,17,05,04,9.60
2011,08,17,05,05,9.60
2011,08,17,05,06,9.60
2011,08,17,05,07,9.60
2011,08,17,05,08,9.60
2011,08,17,05,09,9.50
2011,08,17,05,10,9.50
2011,08,17,05,11,9.50
2011,08,17,05,12,9.50
2011,08,17,05,13,9.40
2011,08,17,05,14,9.40
2011,08,17,05,15,9.40
2011,08,17,05,16,9.40
2011,08,17,05,17,9.40
2011,08,17,05,18,9.40
2011,08,17,05,19,9.40
2011,08,17,05,20,9.40
2011,08,17,05,21,9.40
2011,08,17,05,22,9.40
2011,08,17,05,23,9.40
2011,08,17,05,24,9.30
2011,08,17,05,25,9.30
2011,08,17,05,26,9.30
2011,08,17,05,27,9.30
2011,08,17,05,28,9.30
2011,08,17,05,29,9.30
2011,08,17,05,30,9.30
2011,08,17,05,31,9.30
2011,08,17,05,32,9.30
2011,08,17,05,33,9.30
2011,08,17,05,34,9.30
2011,08,17,05,35,9.30
2011,08,17,05,36,9.30
2011,08,17,05,37,9.20
2011,08,17,05,38,9.20
2011,08,17,05,39,9.20
2011,08,17,05,40,9.20
2011,08,17,05,41,9.20
2011,08,17,05,42,9.20
2011,08,17,05,43,9.20
2011,08,17,05,44,9.20
2011,08,17,05,45,9.20
2011,08,17,05,46,9.20
2011,08,17,05,47,9.20
2011,08,17,05,48,9.20
2011,08,17,05,49,9.20
2011,08,17,05,50,9.20
2011,08,17,05,51,9.20
2011,08,17,05,52,9.20
2011,08,17,05,53,9.20
2011,08,17,05,54,9.20
2011,08,17,05,55,9.20
2011,08,17,05,56,9.20
2011,08,17,05,57,9.20
2011,08,17,05,58,9.20
2011,08,17,05,59,9.20
2011,08,17,06,00,9.20
2011,08,17,06,01,9.20
2011,08,17,06,02,9.10
2011,08,17,06,03,9.10
2011,08,17,06,04,9.10
2011,08,17,06,05,9.10
2011,08,17,06,06,9.10
2011,08,17,06,07,9.10
2011,08,17,06,08,9.10
2011,08,17,06,09,9.10
2011,08,17,06,10,9.00
2011,08,17,06,11,9.00
2011,08,17,06,12,9.00
2011,08,17,06,13,9.00
2011,08,17,06,14,9.00
2011,08,17,06,15,9.00
2011,08,17,06,16,9.00
2011,08,17,06,17,9.00
2011,08,17,06,18,9.00
2011,08,17,06,19,9.00
2011,08,17,06,20,9.00
2011,08,17,06,21,9.00
2011,08,17,06,22,9.00
2011,08,17,06,23,9.00
2011,08,17,06,24,9.00
2011,08,17,06,25,9.00
2011,08,17,06,26,9.00
2011,08,17,06,27,9.00
2011,08,17,06,28,9.00
2011,08,17,06,29,9.00
2011,08,17,06,30,9.00
2011,08,17,06,31,9.00
2011,08,17,06,32,9.00
2011,08,17,06,33,9.00
2011,08,17,06,34,9.00
2011,08,17,06,35,9.10
2011,08,17,06,36,9.10
2011,08,17,06,37,9.10
2011,08,17,06,38,9.00
2011,08,17,06,39,9.00
2011,08,17,06,40,9.00
2011,08,17,06,41,9.00
2011,08,17,06,42,9.10
2011,08,17,06,43,9.00
2011,08,17,06,44,9.00
2011,08,17,06,45,9.00
2011,08,17,06,46,9.00
2011,08,17,06,47,9.10
2011,08,17,06,48,9.10
2011,08,17,06,49,9.10
2011,08,17,06,50,9.10
2011,08,17,06,51,9.10
2011,08,17,06,52,9.10
2011,08,17,06,53,9.10
2011,08,17,06,54,9.10
2011,08,17,06,55,9.10
2011,08,17,06,56,9.00
2011,08,17,06,57,9.10
2011,08,17,06,58,9.00
2011,08,17,06,59,9.10
2011,08,17,07,00,9.10
2011,08,17,07,01,9.10
2011,08,17,07,02,9.10
2011,08,17,07,03,9.10
2011,08,17,07,04,9.10
2011,08,17,07,05,9.10
2011,08,17,07,06,9.10
2011,08,17,07,07,9.10
2011,08,17,07,08,9.20
2011,08,17,07,09,9.20
2011,08,17,07,10,9.20
2011,08,17,07,11,9.20
2011,08,17,07,12,9.20
2011,08,17,07,13,9.20
2011,08,17,07,14,9.20
2011,08,17,07,15,9.30
2011,08,17,07,16,9.30
2011,08,17,07,17,9.30
2011,08,17,07,18,9.30
2011,08,17,07,19,9.30
2011,08,17,07,20,9.40
2011,08,17,07,21,9.40
2011,08,17,07,22,9.40
2011,08,17,07,23,9.40
2011,08,17,07,24,9.40
2011,08,17,07,25,9.50
2011,08,17,07,26,9.50
2011,08,17,07,27,9.50
2011,08,17,07,28,9.60
2011,08,17,07,29,9.60
2011,08,17,07,30,9.60
2011,08,17,07,31,9.70
2011,08,17,07,32,9.70
2011,08,17,07,33,9.70
2011,08,17,07,34,9.80
2011,08,17,07,35,9.80
2011,08,17,07,36,9.80
2011,08,17,07,37,9.90
2011,08,17,07,38,9.90
2011,08,17,07,39,9.90
2011,08,17,07,40,10.00
2011,08,17,07,41,10.00
2011,08,17,07,42,10.10
2011,08,17,07,43,10.10
2011,08,17,07,44,10.20
2011,08,17,07,45,10.20
2011,08,17,07,46,10.20
2011,08,17,07,47,10.30
2011,08,17,07,48,10.40
2011,08,17,07,49,10.40
2011,08,17,07,50,10.50
2011,08,17,07,51,10.50
2011,08,17,07,52,10.60
2011,08,17,07,53,10.60
2011,08,17,07,54,10.70
2011,08,17,07,55,10.80
2011,08,17,07,56,10.80
2011,08,17,07,57,10.90
2011,08,17,07,58,11.00
2011,08,17,07,59,11.00
2011,08,17,08,00,11.10
2011,08,17,08,01,11.10
2011,08,17,08,02,11.20
2011,08,17,08,03,11.20
2011,08,17,08,04,11.30
2011,08,17,08,05,11.30
2011,08,17,08,06,11.40
2011,08,17,08,07,11.40
2011,08,17,08,08,11.50
2011,08,17,08,09,11.50
2011,08,17,08,10,11.60
2011,08,17,08,11,11.70
2011,08,17,08,12,11.70
2011,08,17,08,13,11.80
2011,08,17,08,14,11.90
2011,08,17,08,15,12.00
2011,08,17,08,16,12.00
2011,08,17,08,17,12.10
2011,08,17,08,18,12.20
2011,08,17,08,19,12.30
2011,08,17,08,20,12.50
2011,08,17,08,21,12.50
2011,08,17,08,22,12.70
2011,08,17,08,23,12.80
2011,08,17,08,24,12.90
2011,08,17,08,25,13.00
2011,08,17,08,26,13.10
2011,08,17,08,27,13.30
2011,08,17,08,28,13.50
2011,08,17,08,29,13.60
2011,08,17,08,30,13.70
2011,08,17,08,31,13.90
2011,08,17,08,32,14.00
2011,08,17,08,33,14.20
2011,08,17,08,34,14.30
2011,08,17,08,35,14.40
2011,08,17,08,36,14.50
2011,08,17,08,37,14.50
2011,08,17,08,38,14.60
2011,08,17,08,39,14.70
2011,08,17,08,40,14.70
2011,08,17,08,41,14.80
2011,08,17,08,42,14.80
2011,08,17,08,43,14.90
2011,08,17,08,44,15.00
2011,08,17,08,45,15.00
2011,08,17,08,46,15.10
2011,08,17,08,47,15.10
2011,08,17,08,48,15.20
2011,08,17,08,49,15.20
2011,08,17,08,50,15.30
2011,08,17,08,51,15.30
2011,08,17,08,52,15.40
2011,08,17,08,53,15.40
2011,08,17,08,54,15.40
2011,08,17,08,55,15.50
2011,08,17,08,56,15.50
2011,08,17,08,57,15.50
2011,08,17,08,58,15.60
2011,08,17,08,59,15.60
2011,08,17,09,00,15.60
2011,08,17,09,01,15.60
2011,08,17,09,02,15.60
2011,08,17,09,03,15.70
2011,08,17,09,04,15.70
2011,08,17,09,05,15.70
2011,08,17,09,06,15.70
2011,08,17,09,07,15.80
2011,08,17,09,08,15.80
2011,08,17,09,09,15.90
2011,08,17,09,10,15.90
2011,08,17,09,11,16.00
2011,08,17,09,12,16.10
2011,08,17,09,13,16.20
2011,08,17,09,14,16.20
2011,08,17,09,15,16.30
2011,08,17,09,16,16.30
2011,08,17,09,17,16.40
2011,08,17,09,18,16.40
2011,08,17,09,19,16.40
2011,08,17,09,20,16.50
2011,08,17,09,21,16.50
2011,08,17,09,22,16.50
2011,08,17,09,23,16.60
2011,08,17,09,24,16.60
2011,08,17,09,25,16.70
2011,08,17,09,26,16.70
2011,08,17,09,27,16.80
2011,08,17,09,28,16.80
2011,08,17,09,29,16.80
2011,08,17,09,30,16.90
2011,08,17,09,31,16.90
2011,08,17,09,32,17.00
2011,08,17,09,33,17.00
2011,08,17,09,34,17.10
2011,08,17,09,35,17.10
2011,08,17,09,36,17.20
2011,08,17,09,37,17.20
2011,08,17,09,38,17.20
2011,08,17,09,39,17.20
2011,08,17,09,40,17.20
2011,08,17,09,41,17.20
2011,08,17,09,42,17.30
2011,08,17,09,43,17.30
2011,08,17,09,44,17.30
2011,08,17,09,45,17.40
2011,08,17,09,46,17.40
2011,08,17,09,47,17.50
2011,08,17,09,48,17.50
2011,08,17,09,49,17.60
2011,08,17,09,50,17.60
2011,08,17,09,51,17.70
2011,08,17,09,52,17.80
2011,08,17,09,53,17.80
2011,08,17,09,54,17.80
2011,08,17,09,55,17.80
2011,08,17,09,56,17.80
2011,08,17,09,57,17.80
2011,08,17,09,58,17.80
2011,08,17,09,59,17.80
2011,08,17,10,00,17.90
2011,08,17,10,01,17.90
2011,08,17,10,02,18.00
2011,08,17,10,03,18.00
2011,08,17,10,04,18.10
2011,08,17,10,05,18.10
2011,08,17,10,06,18.10
2011,08,17,10,07,18.10
2011,08,17,10,08,18.10
2011,08,17,10,09,18.10
2011,08,17,10,10,18.10
2011,08,17,10,11,18.10
2011,08,17,10,12,18.10
2011,08,17,10,13,18.10
2011,08,17,10,14,18.10
2011,08,17,10,15,18.10
2011,08,17,10,16,18.20
2011,08,17,10,17,18.20
2011,08,17,10,18,18.30
2011,08,17,10,19,18.30
2011,08,17,10,20,18.40
2011,08,17,10,21,18.40
2011,08,17,10,22,18.40
2011,08,17,10,23,18.50
2011,08,17,10,24,18.50
2011,08,17,10,25,18.50
2011,08,17,10,26,18.50
2011,08,17,10,27,18.60
2011,08,17,10,28,18.60
2011,08,17,10,29,18.60
2011,08,17,10,30,18.70
2011,08,17,10,31,18.70
2011,08,17,10,32,18.70
2011,08,17,10,33,18.70
2011,08,17,10,34,18.70
2011,08,17,10,35,18.80
2011,08,17,10,36,18.80
2011,08,17,10,37,18.80
2011,08,17,10,38,18.80
2011,08,17,10,39,18.80
2011,08,17,10,40,18.80
2011,08,17,10,41,18.80
2011,08,17,10,42,18.90
2011,08,17,10,43,18.90
2011,08,17,10,44,19.00
2011,08,17,10,45,19.00
2011,08,17,10,46,19.10
2011,08,17,10,47,19.10
2011,08,17,10,48,19.10
2011,08,17,10,49,19.10
2011,08,17,10,50,19.20
2011,08,17,10,51,19.20
2011,08,17,10,52,19.30
2011,08,17,10,53,19.40
2011,08,17,10,54,19.40
2011,08,17,10,55,19.40
2011,08,17,10,56,19.40
2011,08,17,10,57,19.40
2011,08,17,10,58,19.40
2011,08,17,10,59,19.50
2011,08,17,11,00,19.60
2011,08,17,11,01,19.60
2011,08,17,11,02,19.60
2011,08,17,11,03,19.60
2011,08,17,11,04,19.60
2011,08,17,11,05,19.60
2011,08,17,11,06,19.70
2011,08,17,11,07,19.70
2011,08,17,11,08,19.70
2011,08,17,11,09,19.70
2011,08,17,11,10,19.70
2011,08,17,11,11,19.70
2011,08,17,11,12,19.70
2011,08,17,11,13,19.60
2011,08,17,11,14,19.60
2011,08,17,11,15,19.60
2011,08,17,11,16,19.60
2011,08,17,11,17,19.60
2011,08,17,11,18,19.70
2011,08,17,11,19,19.70
2011,08,17,11,20,19.70
2011,08,17,11,21,19.70
2011,08,17,11,22,19.70
2011,08,17,11,23,19.80
2011,08,17,11,24,19.80
2011,08,17,11,25,19.90
2011,08,17,11,26,20.00
2011,08,17,11,27,20.10
2011,08,17,11,28,20.10
2011,08,17,11,29,20.10
2011,08,17,11,30,20.20
2011,08,17,11,31,20.20
2011,08,17,11,32,20.20
2011,08,17,11,33,20.20
2011,08,17,11,34,20.20
2011,08,17,11,35,20.20
2011,08,17,11,36,20.20
2011,08,17,11,37,20.20
2011,08,17,11,38,20.20
2011,08,17,11,39,20.20
2011,08,17,11,40,20.10
2011,08,17,11,41,20.20
2011,08,17,11,42,20.20
2011,08,17,11,43,20.30
2011,08,17,11,44,20.30
2011,08,17,11,45,20.30
2011,08,17,11,46,20.30
2011,08,17,11,47,20.20
2011,08,17,11,48,20.20
2011,08,17,11,49,20.20
2011,08,17,11,50,20.20
2011,08,17,11,51,20.20
2011,08,17,11,52,20.20
2011,08,17,11,53,20.20
2011,08,17,11,54,20.10
2011,08,17,11,55,20.00
2011,08,17,11,56,19.90
2011,08,17,11,57,19.90
2011,08,17,11,58,19.90
2011,08,17,11,59,19.90
2011,08,17,12,00,19.80
2011,08,17,12,01,19.80
2011,08,17,12,02,19.90
2011,08,17,12,03,19.90
2011,08,17,12,04,19.90
2011,08,17,12,05,19.90
2011,08,17,12,06,19.90
2011,08,17,12,07,19.90
2011,08,17,12,08,19.90
2011,08,17,12,09,20.00
2011,08,17,12,10,20.00
2011,08,17,12,11,20.10
2011,08,17,12,12,20.10
2011,08,17,12,13,20.10
2011,08,17,12,14,20.10
2011,08,17,12,15,20.00
2011,08,17,12,16,20.00
2011,08,17,12,17,19.90
2011,08,17,12,18,19.90
2011,08,17,12,19,19.80
2011,08,17,12,20,19.80
2011,08,17,12,21,19.80
2011,08,17,12,22,19.80
2011,08,17,12,23,19.90
2011,08,17,12,24,19.90
2011,08,17,12,25,20.00
2011,08,17,12,26,20.00
2011,08,17,12,27,20.00
2011,08,17,12,28,20.00
2011,08,17,12,29,20.10
2011,08,17,12,30,20.20
2011,08,17,12,31,20.20
2011,08,17,12,32,20.20
2011,08,17,12,33,20.30
2011,08,17,12,34,20.40
2011,08,17,12,35,20.40
2011,08,17,12,36,20.40
2011,08,17,12,37,20.50
2011,08,17,12,38,20.50
2011,08,17,12,39,20.60
2011,08,17,12,40,20.60
2011,08,17,12,41,20.70
2011,08,17,12,42,20.80
2011,08,17,12,43,20.90
2011,08,17,12,44,21.00
2011,08,17,12,45,21.10
2011,08,17,12,46,21.20
2011,08,17,12,47,21.30
2011,08,17,12,48,21.30
2011,08,17,12,49,21.30
2011,08,17,12,50,21.30
2011,08,17,12,51,21.40
2011,08,17,12,52,21.30
2011,08,17,12,53,21.40
2011,08,17,12,54,21.40
2011,08,17,12,55,21.50
2011,08,17,12,56,21.60
2011,08,17,12,57,21.70
2011,08,17,12,58,21.70
2011,08,17,12,59,21.70
2011,08,17,13,00,21.60
2011,08,17,13,01,21.60
2011,08,17,13,02,21.70
2011,08,17,13,03,21.70
2011,08,17,13,04,21.80
2011,08,17,13,05,21.90
2011,08,17,13,06,22.00
2011,08,17,13,07,22.10
2011,08,17,13,08,22.20
2011,08,17,13,09,22.20
2011,08,17,13,10,22.10
2011,08,17,13,11,22.10
2011,08,17,13,12,22.10
2011,08,17,13,13,22.20
2011,08,17,13,14,22.20
2011,08,17,13,15,22.30
2011,08,17,13,16,22.30
2011,08,17,13,17,22.40
2011,08,17,13,18,22.50
2011,08,17,13,19,22.50
2011,08,17,13,20,22.60
2011,08,17,13,21,22.60
2011,08,17,13,22,22.60
2011,08,17,13,23,22.70
2011,08,17,13,24,22.70
2011,08,17,13,25,22.70
2011,08,17,13,26,22.70
2011,08,17,13,27,22.70
2011,08,17,13,28,22.70
2011,08,17,13,29,22.70
2011,08,17,13,30,22.80
2011,08,17,13,31,22.80
2011,08,17,13,32,22.80
2011,08,17,13,33,22.80
2011,08,17,13,34,22.80
2011,08,17,13,35,22.80
2011,08,17,13,36,22.70
2011,08,17,13,37,22.70
2011,08,17,13,38,22.70
2011,08,17,13,39,22.80
2011,08,17,13,40,22.90
2011,08,17,13,41,22.90
2011,08,17,13,42,22.90
2011,08,17,13,43,23.00
2011,08,17,13,44,23.00
2011,08,17,13,45,23.10
2011,08,17,13,46,23.10
2011,08,17,13,47,23.20
2011,08,17,13,48,23.20
2011,08,17,13,49,23.30
2011,08,17,13,50,23.30
2011,08,17,13,51,23.30
2011,08,17,13,52,23.30
2011,08,17,13,53,23.30
2011,08,17,13,54,23.30
2011,08,17,13,55,23.20
2011,08,17,13,56,23.20
2011,08,17,13,57,23.20
2011,08,17,13,58,23.10
2011,08,17,13,59,23.10
2011,08,17,14,00,23.10
2011,08,17,14,01,23.10
2011,08,17,14,02,23.10
2011,08,17,14,03,23.10
2011,08,17,14,04,23.10
2011,08,17,14,05,23.20
2011,08,17,14,06,23.20
2011,08,17,14,07,23.20
2011,08,17,14,08,23.20
2011,08,17,14,09,23.10
2011,08,17,14,10,23.10
2011,08,17,14,11,23.10
2011,08,17,14,12,23.10
2011,08,17,14,13,23.10
2011,08,17,14,14,23.10
2011,08,17,14,15,23.10
2011,08,17,14,16,23.10
2011,08,17,14,17,23.10
2011,08,17,14,18,23.20
2011,08,17,14,19,23.20
2011,08,17,14,20,23.30
2011,08,17,14,21,23.40
2011,08,17,14,22,23.40
2011,08,17,14,23,23.50
2011,08,17,14,24,23.50
2011,08,17,14,25,23.50
2011,08,17,14,26,23.40
2011,08,17,14,27,23.40
2011,08,17,14,28,23.40
2011,08,17,14,29,23.40
2011,08,17,14,30,23.50
2011,08,17,14,31,23.50
2011,08,17,14,32,23.60
2011,08,17,14,33,23.60
2011,08,17,14,34,23.70
2011,08,17,14,35,23.70
2011,08,17,14,36,23.60
2011,08,17,14,37,23.60
2011,08,17,14,38,23.60
2011,08,17,14,39,23.50
2011,08,17,14,40,23.40
2011,08,17,14,41,23.30
2011,08,17,14,42,23.20
2011,08,17,14,43,23.20
2011,08,17,14,44,23.20
2011,08,17,14,45,23.20
2011,08,17,14,46,23.20
2011,08,17,14,47,23.10
2011,08,17,14,48,23.10
2011,08,17,14,49,23.10
2011,08,17,14,50,23.10
2011,08,17,14,51,23.10
2011,08,17,14,52,23.10
2011,08,17,14,53,23.10
2011,08,17,14,54,23.10
2011,08,17,14,55,23.10
2011,08,17,14,56,23.10
2011,08,17,14,57,23.10
2011,08,17,14,58,23.10
2011,08,17,14,59,23.10
2011,08,17,15,00,23.20
2011,08,17,15,01,23.20
2011,08,17,15,02,23.10
2011,08,17,15,03,23.10
2011,08,17,15,04,23.10
2011,08,17,15,05,23.10
2011,08,17,15,06,23.10
2011,08,17,15,07,23.10
2011,08,17,15,08,23.10
2011,08,17,15,09,23.10
2011,08,17,15,10,23.00
2011,08,17,15,11,23.00
2011,08,17,15,12,22.90
2011,08,17,15,13,22.90
2011,08,17,15,14,22.90
2011,08,17,15,15,22.90
2011,08,17,15,16,22.90
2011,08,17,15,17,22.90
2011,08,17,15,18,23.00
2011,08,17,15,19,23.00
2011,08,17,15,20,23.10
2011,08,17,15,21,23.20
2011,08,17,15,22,23.20
2011,08,17,15,23,23.20
2011,08,17,15,24,23.20
2011,08,17,15,25,23.10
2011,08,17,15,26,23.00
2011,08,17,15,27,22.90
2011,08,17,15,28,22.80
2011,08,17,15,29,22.70
2011,08,17,15,30,22.70
2011,08,17,15,31,22.80
2011,08,17,15,32,22.80
2011,08,17,15,33,22.80
2011,08,17,15,34,22.80
2011,08,17,15,35,22.90
2011,08,17,15,36,22.90
2011,08,17,15,37,22.90
2011,08,17,15,38,22.90
2011,08,17,15,39,22.90
2011,08,17,15,40,22.80
2011,08,17,15,41,22.80
2011,08,17,15,42,22.80
2011,08,17,15,43,22.70
2011,08,17,15,44,22.70
2011,08,17,15,45,22.60
2011,08,17,15,46,22.60
2011,08,17,15,47,22.50
2011,08,17,15,48,22.50
2011,08,17,15,49,22.50
2011,08,17,15,50,22.40
2011,08,17,15,51,22.40
2011,08,17,15,52,22.40
2011,08,17,15,53,22.40
2011,08,17,15,54,22.40
2011,08,17,15,55,22.50
2011,08,17,15,56,22.50
2011,08,17,15,57,22.50
2011,08,17,15,58,22.50
2011,08,17,15,59,22.50
2011,08,17,16,00,22.40
2011,08,17,16,01,22.40
2011,08,17,16,02,22.30
2011,08,17,16,03,22.20
2011,08,17,16,04,22.20
2011,08,17,16,05,22.20
2011,08,17,16,06,22.10
2011,08,17,16,07,22.10
2011,08,17,16,08,22.10
2011,08,17,16,09,22.10
2011,08,17,16,10,22.10
2011,08,17,16,11,22.20
2011,08,17,16,12,22.20
2011,08,17,16,13,22.20
2011,08,17,16,14,22.30
2011,08,17,16,15,22.30
2011,08,17,16,16,22.40
2011,08,17,16,17,22.40
2011,08,17,16,18,22.40
2011,08,17,16,19,22.40
2011,08,17,16,20,22.30
2011,08,17,16,21,22.20
2011,08,17,16,22,22.20
2011,08,17,16,23,22.20
2011,08,17,16,24,22.20
2011,08,17,16,25,22.20
2011,08,17,16,26,22.10
2011,08,17,16,27,22.00
2011,08,17,16,28,21.90
2011,08,17,16,29,21.80
2011,08,17,16,30,21.70
2011,08,17,16,31,21.60
2011,08,17,16,32,21.50
2011,08,17,16,33,21.50
2011,08,17,16,34,21.40
2011,08,17,16,35,21.40
2011,08,17,16,36,21.40
2011,08,17,16,37,21.40
2011,08,17,16,38,21.40
2011,08,17,16,39,21.40
2011,08,17,16,40,21.50
2011,08,17,16,41,21.50
2011,08,17,16,42,21.50
2011,08,17,16,43,21.60
2011,08,17,16,44,21.60
2011,08,17,16,45,21.50
2011,08,17,16,46,21.50
2011,08,17,16,47,21.50
2011,08,17,16,48,21.50
2011,08,17,16,49,21.50
2011,08,17,16,50,21.60
2011,08,17,16,51,21.60
2011,08,17,16,52,21.70
2011,08,17,16,53,21.70
2011,08,17,16,54,21.80
2011,08,17,16,55,21.80
2011,08,17,16,56,21.90
2011,08,17,16,57,21.90
2011,08,17,16,58,21.90
2011,08,17,16,59,22.00
2011,08,17,17,00,22.10
2011,08,17,17,01,22.10
2011,08,17,17,02,22.10
2011,08,17,17,03,22.10
2011,08,17,17,04,22.10
2011,08,17,17,05,22.20
2011,08,17,17,06,22.20
2011,08,17,17,07,22.20
2011,08,17,17,08,22.30
2011,08,17,17,09,22.30
2011,08,17,17,10,22.30
2011,08,17,17,11,22.30
2011,08,17,17,12,22.30
2011,08,17,17,13,22.30
2011,08,17,17,14,22.30
2011,08,17,17,15,22.30
2011,08,17,17,16,22.30
2011,08,17,17,17,22.30
2011,08,17,17,18,22.30
2011,08,17,17,19,22.30
2011,08,17,17,20,22.30
2011,08,17,17,21,22.30
2011,08,17,17,22,22.30
2011,08,17,17,23,22.20
2011,08,17,17,24,22.10
2011,08,17,17,25,22.10
2011,08,17,17,26,22.10
2011,08,17,17,27,22.00
2011,08,17,17,28,22.00